Location: Unspecified
(0.0000°N, 0.0000°E)
Time: 07:22:31
(UTC+00:00)

Hubble Space Telescope - Pass Details

Date: 23 September 2017
Orbit: 538 x 541 km, 28.5° (Epoch: 22 September)

Event Time Altitude Azimuth Distance (km) Brightness Sun altitude
Exits shadow 05:25:18 - 248° (WSW) 2,087 3.2 -6.8°
Reaches altitude 10° 05:26:04 10° 249° (WSW) 1,789 2.8 -6.6°
Maximum altitude 05:30:10 61° 330° (NNW) 610 0.9 -5.6°
Drops below altitude 10° 05:34:14 10° 50° (NE) 1,783 4.3 -4.5°
Sets 05:36:31 0° 54° (NE) 2,672 5.3 -4.0°
